Back to catalog

SL-16 DEB

AliveLEO
NORAD 22418·DEBRIS·🇷🇺 Russia

Launched Dec 25, 1992 from Baikonur Cosmodrome

Loading…

Next Passes (next 24 hours)

TLE

FreshSource: Space-Track

Epoch: Sep 14, 2026, 14:23 UTC

1 22418U 92093DK  26257.59990132  .00000342  00000-0  22281-3 0  9997
2 22418  71.1238 114.1063 0125910 282.4399 106.4691 14.05475261718426

Track SL-16 DEB in real time with AllMySat

Download on the App Store